星链-31901 (STARLINK-31901 )

导读

STARLINK-31901是美国太空探索技术公司SpaceX星链卫星互联网项目的卫星,于2024年5月18日发射升空。它属于星链网络的扩容卫星,延续了星链卫星低轨道部署的特征,将加入近地轨道星座,为全球提供高速低延迟互联网接入服务,进一步扩充星链系统的覆盖范围与服务容量。

Basic Information
目录编号:
59793
目录名称:
STARLINK-31901
国际标识:
2024-093M
轨道中心:
EARTH
卫星名称:
星链-31901
卫星全名:
星链-31901 (STARLINK-31901 )
卫星状态:
已陨落 最后检测时间 2025-03-29
发射日期:
2024-05-18 UTC
国别 :
美国 (US)
星等 :
--
Orbit Information
数据来源 国际轨道数据
星历时间: 2025-03-29T09:21:01+0800
轨道信息已过期446天
半长轴: 6601.804km
偏心率: 0.0005891
轨道倾角: 42.982°
近地点辐角 262.884°
升交点赤经 314.750°
平近点角 242.588°
近地点: 219.779km
远地点: 227.559km
周期: 88.972分钟
每日圈数: 16.184859
Detailed Information
固有亮度:
5
最大亮度:
1.5
卫星平台:
Starlink v2.0 mini
覆盖范围:
全球
运营商:
太空探索技术公司
运营商所在国:
美国
制造商(研发单位):
太空探索技术公司
制造商所在国:
美国
使用方式:
暂无
Satellite Introduction
星链(Starlink)计划是由太空探索技术公司(SpaceX)提出的一个巨型低轨卫星互联网星座项目,计划在2019年至2024年间在太空搭建由约1.2万颗卫星组成的“星链”网络,其中1584颗将部署在地球上空550千米处的近地轨道,并从2020年开始工作。该卫星仍在工作。